STARLINK-32468 (62149 NORAD) Tracking and Keplerian Element Data

This shows tracking and keplerian element data for the satellite.

Feedback or suggestion? Click here.




ElementValue
Catalog62149
NameSTARLINK-32468
Epoch Orbit1126
Epoch Day35.01443913
Epoch Year2025
RAAN256.89
Inclination42.9999
Eccentricity0.0001395
Argument of Perigee261.4165
Mean Anonmoly98.653
Mean Motion15.32100757
Decay Rate-4.2E-07
L11 62149U 24224L 25035.01443913 -.00000042 00000+0 73729-5 0 9995
L22 62149 42.9999 256.8900 0001395 261.4165 98.6530 15.32100757 11261



Live tracking and technical data element details for STARLINK-32468 (NORAD 62149). STARLINK-32468 can be tracked NOW for your location showing map with azimuth and elevation plus other details from your city location.







IsCatalogInMostPopularTable: catalog: 62149, numindb: 20
Update: records affected: 1



GetName: 62149 STARLINK-32468

Hit Count: updated at: Mon, 19 May 2025 03:04:22 GMT